Location: Northcutt
(34.7304°N, 84.4305°W)
Time: 08:27:19
(UTC+00:00)

S-56A Canister/Altair - Pass Details

Date: 10 October 2022
Orbit: 638 x 2494 km, 38.9° (Epoch: 08 December)

Event Time Altitude Azimuth Distance (km) Brightness Sun altitude
Rises 07:27:42 0° 278° (W) 5,921 - -50.2°
Reaches altitude 10° 07:31:57 10° 281° (W) 4,725 - -49.5°
Maximum altitude 07:44:36 72° 5° (N) 1,724 - -47.3°
Exits shadow 07:48:37 39° 80° (E) 2,070 9.8 -46.6°
Drops below altitude 10° 07:52:53 10° 90° (E) 3,210 11.1 -45.9°
Sets 07:55:15 0° 93° (E) 3,967 11.8 -45.5°
